CZ-6A DEB, 54591

Orbit data source: Space-Track

CZ-6A DEB, 54591 is space debris in SSO originally from a launch on Fri, 11 Nov 2022 UTC launched from the Taiyaun Space Center, China (TSC). Debris objects in space refer to the collection of defunct objects orbiting the Earth. Examples of debris include non-operational satellites, rocket bodies, and fragments generated from explosions, collisions, or faulty payload assembly.

Loading next visibility...
Identifier
54591, 2022-151MR
Orbit
SSO
Country
Flag of CNCN / PRC
Related business
Manufacturer
SAST
Mission
Spacecraft
Bus & Motor
Unknown
Mass
Unknown
Launch date (UTC)
2022-11-11 (4 years ago)
Launch vehicle
Unknown
Launch site
Taiyaun Space Center, China (TSC)
Object type
Payload
Rocket body
Debris
Shape & HBR
Unknown shape, 0.1 m
Radar Cross Section
Medium (>0.1 m² and <1 m²)

Expand to show TLE details & history
Last TLE update: 1 day ago

TLE from 1 day ago
0 CZ-6A DEB
1 54591U 22151MR  26235.22983822  .00017894  00000-0  17139-2 0  9991
2 54591  98.7149 339.8761 0077803  36.8982 323.7550 14.90945186126542
Epoch: 2026-08-23T05:30Z
TLE epoch observation values (Epoch: 2026-08-23T05:30:58.022Z)
Latitude
-0.00008°
Longitude
-74.39453°
Altitude
554.383 km
Speed
7.608 km/s
True Right ascension
22h 39m 30s
True Declination
0° 00' 00"
Sunlit
Object was in full shadow at epoch
Visualization orbit readout
Latitude
Unknown
Longitude
Unknown
Altitude
Unknown
Speed
Unknown
Apparent Right ascension
Unknown
Apparent Declination
Unknown
Sunlit
N/A
Visualization observer readout
Local Sidereal Time
00:23:33
Azimuth
Unknown
Elevation
Unknown
Doppler factor
Unknown
Orbital elements
Apogee altitude
646.282 km
Perigee altitude
537.821 km
Semi-major axis
6,970.189 km
Eccentricity
0.00778
Inclination
98.7149°
RAAN
339.8761°
Arg. of periapsis
36.8982°
True anomaly
323.22372°
Mean anomaly
323.755°
Eccentric anomaly
323.48978°
Mean motion
3.72972 °/min
Orbital period
96.52 mins
BSTAR
0.0017139
Loading maneuver chart data...
Computing Atmospheric mass density...
Loading historical data...
Loading historical data...
Loading historical data...
Loading historical data...
Loading historical data...
Loading historical data...
Loading historical data...

Documentation

Showing up to 5 results
|